Location: Heilwood
(40.6210°N, 78.9150°W)
Time: 11:23:16
(UTC-05:00)

BREEZE-M DEB (TANK) - Visible Passes

Search period start: 18 December 2014 00:00
Search period end: 28 December 2014 00:00
Orbit: 300 x 16006 km, 49.5° (Epoch: 17 December)

Date Brightness Start Highest point End Pass type
(mag) Time Alt. Az. Time Alt. Az. Time Alt. Az.
18 Dec 7.7 05:36:01 10° SE 05:46:30 21° E 06:15:51 10° NE visible
18 Dec 9.0 15:45:12 10° NW 17:20:34 65° WSW 19:07:33 10° S visible
19 Dec 7.5 05:47:34 10° SE 05:58:22 26° E 06:34:49 10° NE visible
19 Dec 9.0 15:59:46 10° NW 17:33:42 60° W 19:19:31 10° S visible
20 Dec 7.3 05:59:29 10° SSE 06:10:23 31° E 06:53:42 10° NE visible
20 Dec 9.1 16:14:23 10° NW 17:46:20 56° W 19:31:07 10° SSW visible
21 Dec 7.1 06:11:40 10° SSE 06:22:32 37° E 07:12:41 10° NE visible
21 Dec 9.1 16:29:06 10° NW 17:58:34 51° W 19:42:14 10° SSW visible
22 Dec 6.9 06:24:01 10° S 06:34:52 43° ESE 07:31:58 10° NE visible
22 Dec 9.2 16:43:54 10° NW 18:10:25 47° W 19:52:48 10° SSW visible
23 Dec 6.8 06:36:30 10° S 06:47:23 50° ESE 07:51:43 10° NE visible
23 Dec 9.3 16:58:51 10° NW 18:21:59 42° W 20:02:39 10° SW visible
24 Dec 6.7 06:49:05 10° SSW 07:00:06 57° ESE 08:12:06 10° NE visible
24 Dec 9.5 17:13:59 10° NW 18:33:16 38° W 20:11:36 10° SW visible
25 Dec 6.7 07:01:46 10° SSW 07:13:00 64° ESE 08:33:14 10° ENE visible
25 Dec 9.6 17:29:22 10° NW 18:44:18 34° W 20:19:25 10° SW visible
26 Dec 9.7 17:45:06 10° NW 18:55:08 30° W 20:25:44 10° WSW visible
27 Dec 9.8 18:01:21 10° NW 19:05:46 26° WNW 20:30:08 10° WSW visible
